Location: Shenandoah County Park
(38.9356°N, 78.4524°W)
Time: 02:22:10
(UTC-05:00)

Envisat - Pass Details

Date: 04 December 2021
Orbit: 764 x 766 km, 98.2° (Epoch: 23 January)

Event Time Altitude Azimuth Distance (km) Brightness Sun altitude
Rises 05:33:42 0° 8° (N) 3,240 6.2 -19.5°
Reaches altitude 10° 05:36:03 10° 5° (N) 2,309 5.4 -19.0°
Maximum altitude 05:41:02 59° 287° (WNW) 880 3.0 -18.1°
Drops below altitude 10° 05:46:00 10° 208° (SSW) 2,293 5.3 -17.2°
Sets 05:48:19 0° 205° (SSW) 3,215 6.1 -16.7°
